NWA1717 TJSJ-KDTW

Flight info

Callsign NWA1717
Flight time N/A
Altitude 36000
Route PALDE DCT DONQU DCT LETON/M078F360 L451 JAINS/N0452F360 Y327 CLOWR DCT GARIC DCT LIB DCT PSK DCT BKW DCT JAMOX BONZZ2
Aircraft A320/M-SDE3FGHIRWY/LB1

Departure

Time N/A
Airport Luis Munoz Marin International Airport (TJSJ)

Arrival

Time 2026-05-03 23:51
Airport Detroit Metropolitan Wayne County Airport (KDTW)
Time Latitude Longitude Altitude Speed Heading
2026-05-03 21:43 30.44142 -76.12978 36131 ft 410 kts 307°
2026-05-03 21:43 30.48566 -76.17149 36158 ft 410 kts 307°
2026-05-03 21:44 30.52993 -76.21317 36125 ft 407 kts 307°
2026-05-03 21:44 30.57375 -76.25442 36119 ft 405 kts 307°
2026-05-03 21:45 30.61746 -76.29572 36121 ft 406 kts 307°
2026-05-03 21:45 30.66129 -76.33711 36123 ft 406 kts 307°
2026-05-03 21:46 30.70512 -76.37851 36127 ft 406 kts 307°
2026-05-03 21:46 30.74855 -76.41969 36128 ft 406 kts 307°
2026-05-03 21:47 30.79223 -76.46113 36127 ft 406 kts 307°
2026-05-03 21:47 30.83596 -76.50267 36160 ft 405 kts 307°
2026-05-03 21:48 30.87955 -76.54406 36137 ft 403 kts 307°
2026-05-03 21:48 30.92305 -76.58539 36133 ft 404 kts 307°
2026-05-03 21:49 30.96642 -76.62683 36136 ft 404 kts 307°
2026-05-03 21:49 31.00989 -76.66832 36136 ft 404 kts 307°
2026-05-03 21:50 31.05309 -76.70967 36139 ft 404 kts 307°
2026-05-03 21:50 31.09657 -76.75125 36141 ft 405 kts 307°
2026-05-03 21:51 31.14015 -76.79284 36172 ft 405 kts 307°
2026-05-03 21:51 31.18359 -76.83455 36162 ft 404 kts 307°
2026-05-03 21:52 31.22705 -76.87635 36179 ft 404 kts 307°
2026-05-03 21:52 31.27052 -76.91807 36165 ft 404 kts 307°
2026-05-03 21:53 31.31397 -76.95985 36161 ft 405 kts 307°
2026-05-03 21:53 31.35876 -77.00031 36152 ft 419 kts 316°
2026-05-03 21:54 31.38558 -77.01566 36152 ft 432 kts 322°
2026-05-03 21:54 31.41311 -77.02981 36200 ft 433 kts 322°
2026-05-03 21:54 31.46833 -77.05814 36134 ft 433 kts 322°
2026-05-03 21:55 31.52320 -77.08650 35989 ft 433 kts 322°
2026-05-03 21:55 31.55068 -77.10074 35866 ft 432 kts 322°
2026-05-03 21:55 31.57820 -77.11503 35747 ft 432 kts 322°
2026-05-03 21:56 31.60571 -77.12933 35623 ft 432 kts 322°
2026-05-03 21:56 31.63315 -77.14360 35508 ft 432 kts 322°
2026-05-03 21:56 31.66065 -77.15785 35386 ft 432 kts 323°
2026-05-03 21:56 31.68817 -77.17208 35243 ft 432 kts 323°
2026-05-03 21:57 31.71567 -77.18633 35105 ft 432 kts 323°
2026-05-03 21:57 31.74316 -77.20061 35148 ft 433 kts 322°
2026-05-03 21:57 31.79828 -77.22933 35158 ft 433 kts 322°
2026-05-03 21:58 31.85349 -77.25816 35142 ft 434 kts 323°
2026-05-03 21:58 31.90873 -77.28699 35145 ft 434 kts 323°
2026-05-03 21:59 31.96400 -77.31580 35135 ft 434 kts 323°
2026-05-03 21:59 32.01924 -77.34473 35175 ft 434 kts 322°
2026-05-03 22:00 32.07440 -77.37366 35158 ft 434 kts 322°
2026-05-03 22:00 32.12963 -77.40269 35149 ft 434 kts 322°
2026-05-03 22:01 32.18484 -77.43170 35144 ft 435 kts 322°
2026-05-03 22:01 32.24006 -77.46075 35144 ft 434 kts 322°
2026-05-03 22:02 32.29768 -77.48559 35177 ft 452 kts 331°
2026-05-03 22:02 32.35816 -77.50425 35165 ft 452 kts 332°
2026-05-03 22:03 32.41904 -77.52288 35159 ft 452 kts 332°
2026-05-03 22:03 32.47999 -77.54159 35154 ft 452 kts 332°
2026-05-03 22:04 32.54076 -77.56041 35199 ft 452 kts 331°
2026-05-03 22:04 32.60151 -77.57936 35179 ft 451 kts 331°
2026-05-03 22:05 32.66212 -77.59822 35192 ft 450 kts 331°
2026-05-03 22:05 32.72260 -77.61701 35183 ft 449 kts 331°
2026-05-03 22:06 32.78297 -77.63577 35173 ft 448 kts 331°
2026-05-03 22:06 32.84310 -77.65467 35168 ft 447 kts 331°
2026-05-03 22:07 32.90330 -77.67355 35165 ft 447 kts 331°
2026-05-03 22:07 32.96350 -77.69238 35163 ft 447 kts 331°
2026-05-03 22:08 33.02374 -77.71127 35162 ft 447 kts 331°
2026-05-03 22:08 33.08392 -77.73017 35211 ft 447 kts 331°
2026-05-03 22:09 33.14370 -77.74886 35163 ft 442 kts 331°
2026-05-03 22:10 33.23294 -77.77688 35159 ft 442 kts 330°
2026-05-03 22:10 33.29236 -77.79571 35161 ft 442 kts 330°
2026-05-03 22:11 33.35179 -77.81457 35208 ft 442 kts 330°
2026-05-03 22:11 33.41104 -77.83330 35158 ft 439 kts 331°
2026-05-03 22:12 33.47005 -77.85197 35167 ft 438 kts 331°
2026-05-03 22:12 33.49954 -77.86130 35404 ft 438 kts 330°
2026-05-03 22:12 33.52904 -77.87065 35640 ft 438 kts 330°
2026-05-03 22:12 33.55841 -77.87997 35878 ft 437 kts 330°
2026-05-03 22:13 33.58785 -77.88933 36088 ft 438 kts 330°
2026-05-03 22:13 33.64653 -77.90811 36143 ft 440 kts 330°
2026-05-03 22:14 33.70554 -77.92697 36141 ft 439 kts 330°
2026-05-03 22:14 33.76456 -77.94584 36120 ft 439 kts 330°
2026-05-03 22:15 33.82349 -77.96465 36126 ft 438 kts 330°
2026-05-03 22:15 33.88041 -77.98699 36112 ft 415 kts 318°
2026-05-03 22:15 33.90472 -78.00447 36144 ft 400 kts 311°
2026-05-03 22:16 33.92758 -78.02340 36140 ft 400 kts 311°
2026-05-03 22:16 33.97351 -78.06125 36132 ft 399 kts 312°
2026-05-03 22:17 34.01938 -78.09890 36128 ft 399 kts 312°
2026-05-03 22:17 34.06524 -78.13663 36127 ft 399 kts 311°
2026-05-03 22:18 34.11110 -78.17440 36126 ft 399 kts 312°
2026-05-03 22:18 34.15687 -78.21216 36126 ft 399 kts 311°
2026-05-03 22:19 34.20267 -78.25003 36124 ft 399 kts 312°
2026-05-03 22:19 34.24849 -78.28787 36116 ft 399 kts 312°
2026-05-03 22:20 34.29431 -78.32582 36112 ft 400 kts 312°
2026-05-03 22:20 34.34017 -78.36387 36116 ft 400 kts 312°
2026-05-03 22:21 34.38609 -78.40200 36120 ft 400 kts 312°
2026-05-03 22:21 34.43205 -78.44027 36119 ft 401 kts 312°
2026-05-03 22:22 34.47796 -78.47852 36146 ft 401 kts 313°
2026-05-03 22:22 34.52393 -78.51682 36137 ft 401 kts 313°
2026-05-03 22:23 34.56989 -78.55516 36128 ft 401 kts 313°
2026-05-03 22:23 34.61576 -78.59361 36123 ft 401 kts 313°
2026-05-03 22:24 34.65392 -78.62558 36120 ft 401 kts 313°
2026-05-03 22:24 34.69984 -78.66403 36117 ft 401 kts 313°
2026-05-03 22:25 34.74580 -78.70254 36112 ft 400 kts 314°
2026-05-03 22:25 34.79145 -78.74092 36095 ft 399 kts 314°
2026-05-03 22:26 34.83726 -78.77951 36075 ft 400 kts 314°
2026-05-03 22:26 34.88296 -78.81809 36071 ft 401 kts 314°
2026-05-03 22:27 34.92886 -78.85679 36076 ft 401 kts 314°
2026-05-03 22:27 34.97464 -78.89547 36077 ft 401 kts 314°
2026-05-03 22:28 35.02011 -78.93391 36107 ft 401 kts 314°
2026-05-03 22:28 35.06593 -78.97274 36078 ft 401 kts 314°
2026-05-03 22:29 35.11173 -79.01164 36074 ft 401 kts 314°
2026-05-03 22:29 35.15766 -79.05057 36088 ft 401 kts 314°
2026-05-03 22:30 35.20338 -79.08953 36083 ft 401 kts 314°
2026-05-03 22:30 35.24924 -79.12862 36079 ft 402 kts 314°
2026-05-03 22:31 35.29515 -79.16773 36115 ft 402 kts 315°
2026-05-03 22:31 35.34108 -79.20696 36113 ft 402 kts 315°
2026-05-03 22:32 35.38692 -79.24632 36108 ft 402 kts 315°
2026-05-03 22:32 35.43278 -79.28570 36112 ft 402 kts 315°
2026-05-03 22:33 35.47864 -79.32509 36107 ft 402 kts 315°
2026-05-03 22:33 35.52445 -79.36447 36101 ft 402 kts 315°
2026-05-03 22:34 35.56990 -79.40368 36096 ft 402 kts 315°
2026-05-03 22:34 35.61576 -79.44320 36110 ft 402 kts 315°
2026-05-03 22:35 35.66163 -79.48271 36101 ft 403 kts 315°
2026-05-03 22:35 35.70750 -79.52229 36096 ft 403 kts 315°
2026-05-03 22:36 35.75328 -79.56197 36094 ft 403 kts 315°
2026-05-03 22:36 35.79909 -79.60176 36119 ft 403 kts 315°
2026-05-03 22:37 35.84511 -79.64133 36120 ft 403 kts 316°
2026-05-03 22:37 35.89138 -79.68033 36110 ft 403 kts 316°
2026-05-03 22:38 35.93769 -79.71937 36100 ft 402 kts 316°
2026-05-03 22:38 35.98378 -79.75842 36088 ft 402 kts 316°
2026-05-03 22:39 36.02986 -79.79757 36087 ft 402 kts 316°
2026-05-03 22:39 36.07597 -79.83683 36121 ft 402 kts 316°
2026-05-03 22:40 36.12204 -79.87611 36110 ft 402 kts 316°
2026-05-03 22:40 36.16794 -79.91534 36103 ft 401 kts 316°
2026-05-03 22:41 36.21378 -79.95455 36101 ft 400 kts 316°
2026-05-03 22:41 36.25959 -79.99377 36097 ft 400 kts 316°
2026-05-03 22:42 36.30533 -80.03304 36094 ft 400 kts 316°
2026-05-03 22:42 36.35114 -80.07239 36099 ft 399 kts 316°
2026-05-03 22:43 36.39664 -80.11141 36099 ft 397 kts 316°
2026-05-03 22:43 36.44183 -80.15019 36095 ft 397 kts 316°
2026-05-03 22:44 36.48729 -80.18923 36095 ft 397 kts 316°
2026-05-03 22:44 36.53263 -80.22846 36086 ft 397 kts 316°
2026-05-03 22:45 36.57802 -80.26791 36088 ft 398 kts 316°
2026-05-03 22:45 36.62344 -80.30728 36117 ft 398 kts 316°
2026-05-03 22:46 36.66889 -80.34673 36110 ft 398 kts 316°
2026-05-03 22:46 36.71430 -80.38608 36101 ft 398 kts 316°
2026-05-03 22:47 36.75969 -80.42547 36097 ft 397 kts 316°
2026-05-03 22:47 36.80495 -80.46502 36092 ft 397 kts 316°
2026-05-03 22:48 36.85024 -80.50467 36095 ft 398 kts 316°
2026-05-03 22:48 36.89559 -80.54432 36124 ft 398 kts 316°
2026-05-03 22:49 36.94091 -80.58394 36113 ft 397 kts 316°
2026-05-03 22:49 36.98614 -80.62356 36111 ft 397 kts 316°
2026-05-03 22:50 37.03140 -80.66315 36080 ft 397 kts 316°
2026-05-03 22:50 37.07670 -80.70290 36071 ft 397 kts 317°
2026-05-03 22:51 37.12638 -80.73572 36097 ft 408 kts 326°
2026-05-03 22:51 37.17763 -80.76588 36077 ft 407 kts 326°
2026-05-03 22:52 37.22889 -80.79587 36064 ft 407 kts 326°
2026-05-03 22:52 37.28014 -80.82606 36091 ft 406 kts 326°
2026-05-03 22:53 37.33137 -80.85632 36090 ft 407 kts 326°
2026-05-03 22:53 37.38221 -80.88637 36128 ft 407 kts 326°
2026-05-03 22:54 37.43336 -80.91669 36120 ft 406 kts 326°
2026-05-03 22:54 37.48449 -80.94705 36115 ft 406 kts 326°
2026-05-03 22:55 37.53553 -80.97736 36106 ft 406 kts 326°
2026-05-03 22:55 37.58654 -81.00767 36103 ft 405 kts 326°
2026-05-03 22:56 37.63749 -81.03802 36098 ft 404 kts 326°
2026-05-03 22:56 37.68812 -81.06824 36085 ft 402 kts 326°
2026-05-03 22:57 37.73869 -81.09849 36080 ft 403 kts 326°
2026-05-03 22:57 37.79016 -81.12723 36076 ft 411 kts 334°
2026-05-03 22:58 37.84520 -81.14770 36077 ft 412 kts 334°
2026-05-03 22:58 37.90032 -81.16816 36109 ft 412 kts 334°
2026-05-03 22:59 37.95495 -81.18855 36104 ft 412 kts 334°
2026-05-03 22:59 38.00988 -81.20917 36106 ft 412 kts 334°
2026-05-03 23:00 38.06481 -81.22976 36101 ft 412 kts 334°
2026-05-03 23:00 38.11975 -81.25032 36099 ft 412 kts 334°
2026-05-03 23:01 38.17469 -81.27096 36095 ft 411 kts 334°
2026-05-03 23:01 38.22950 -81.29168 36092 ft 411 kts 334°
2026-05-03 23:02 38.28437 -81.31246 36095 ft 411 kts 334°
2026-05-03 23:02 38.33910 -81.33311 36143 ft 410 kts 334°
2026-05-03 23:03 38.39375 -81.35378 36103 ft 408 kts 334°
2026-05-03 23:03 38.44816 -81.37436 36091 ft 408 kts 334°
2026-05-03 23:04 38.50256 -81.39496 36081 ft 408 kts 334°
2026-05-03 23:04 38.55697 -81.41570 36077 ft 408 kts 334°
2026-05-03 23:05 38.61128 -81.43647 36110 ft 408 kts 334°
2026-05-03 23:05 38.66563 -81.45717 36102 ft 408 kts 334°
2026-05-03 23:06 38.72000 -81.47793 36090 ft 408 kts 334°
2026-05-03 23:06 38.77430 -81.49872 36085 ft 408 kts 334°
2026-05-03 23:07 38.82865 -81.51951 36104 ft 408 kts 334°
2026-05-03 23:07 38.88295 -81.54031 36095 ft 407 kts 334°
2026-05-03 23:08 38.93715 -81.56112 36080 ft 407 kts 334°
2026-05-03 23:08 38.99106 -81.58175 36074 ft 407 kts 334°
2026-05-03 23:09 39.04559 -81.60288 36069 ft 407 kts 334°
2026-05-03 23:09 39.09940 -81.62378 36084 ft 407 kts 335°
2026-05-03 23:10 39.15367 -81.64472 36076 ft 407 kts 334°
2026-05-03 23:10 39.20784 -81.66574 36070 ft 407 kts 335°
2026-05-03 23:11 39.26243 -81.68690 36070 ft 407 kts 335°
2026-05-03 23:11 39.31669 -81.70795 36093 ft 407 kts 335°
2026-05-03 23:12 39.37054 -81.72892 36079 ft 407 kts 335°
2026-05-03 23:12 39.42480 -81.75014 36072 ft 407 kts 335°
2026-05-03 23:13 39.47903 -81.77136 36065 ft 407 kts 335°
2026-05-03 23:13 39.53329 -81.79254 36091 ft 407 kts 335°
2026-05-03 23:14 39.58743 -81.81375 36079 ft 407 kts 335°
2026-05-03 23:14 39.63245 -81.83139 36068 ft 407 kts 335°
2026-05-03 23:15 39.68663 -81.85270 36050 ft 406 kts 335°
2026-05-03 23:15 39.74241 -81.86809 36041 ft 415 kts 344°
2026-05-03 23:16 39.79973 -81.87825 36059 ft 415 kts 344°
2026-05-03 23:16 39.85700 -81.88829 36044 ft 416 kts 344°
2026-05-03 23:17 39.91438 -81.89841 36036 ft 415 kts 344°
2026-05-03 23:17 39.97157 -81.90866 36062 ft 415 kts 344°
2026-05-03 23:18 40.02888 -81.91896 36031 ft 416 kts 344°
2026-05-03 23:18 40.05787 -81.92422 35214 ft 425 kts 344°
2026-05-03 23:18 40.08727 -81.92960 34307 ft 428 kts 343°
2026-05-03 23:18 40.11666 -81.93490 33578 ft 424 kts 343°
2026-05-03 23:19 40.14572 -81.94003 32894 ft 419 kts 343°
2026-05-03 23:19 40.17442 -81.94505 32227 ft 415 kts 343°
2026-05-03 23:19 40.20291 -81.95007 31606 ft 411 kts 343°
2026-05-03 23:19 40.23121 -81.95512 30943 ft 409 kts 343°
2026-05-03 23:20 40.25928 -81.96019 30325 ft 406 kts 343°
2026-05-03 23:20 40.28720 -81.96525 30057 ft 405 kts 343°
2026-05-03 23:20 40.31509 -81.97036 30014 ft 406 kts 343°
2026-05-03 23:21 40.37117 -81.98064 30024 ft 407 kts 343°
2026-05-03 23:21 40.42686 -81.99071 30021 ft 407 kts 343°
2026-05-03 23:22 40.51107 -82.00595 30019 ft 407 kts 343°
2026-05-03 23:22 40.56642 -82.01882 30020 ft 400 kts 337°
2026-05-03 23:23 40.62031 -82.03723 30020 ft 400 kts 337°
2026-05-03 23:23 40.67430 -82.05566 30011 ft 401 kts 338°
2026-05-03 23:24 40.72832 -82.07410 30013 ft 402 kts 338°
2026-05-03 23:24 40.78240 -82.09260 30003 ft 402 kts 338°
2026-05-03 23:25 40.83652 -82.11120 30000 ft 401 kts 338°
2026-05-03 23:25 40.89065 -82.12974 30001 ft 402 kts 338°
2026-05-03 23:26 40.94475 -82.14832 30001 ft 402 kts 338°
2026-05-03 23:26 40.99888 -82.16695 30000 ft 402 kts 338°
2026-05-03 23:27 41.02595 -82.17627 29786 ft 402 kts 338°
2026-05-03 23:27 41.05291 -82.18556 29492 ft 399 kts 338°
2026-05-03 23:27 41.07977 -82.19484 29197 ft 397 kts 338°
2026-05-03 23:27 41.10647 -82.20407 28937 ft 396 kts 339°
2026-05-03 23:28 41.13307 -82.21327 28658 ft 394 kts 339°
2026-05-03 23:28 41.15951 -82.22243 28368 ft 392 kts 339°
2026-05-03 23:28 41.18576 -82.23151 27816 ft 388 kts 339°
2026-05-03 23:28 41.21142 -82.24150 27248 ft 379 kts 333°
2026-05-03 23:29 41.23477 -82.25655 26749 ft 368 kts 323°
2026-05-03 23:29 41.25546 -82.27636 26446 ft 367 kts 317°
2026-05-03 23:29 41.27539 -82.29736 26093 ft 366 kts 317°
2026-05-03 23:29 41.29513 -82.31801 25745 ft 365 kts 318°
2026-05-03 23:30 41.31506 -82.33882 25404 ft 364 kts 318°
2026-05-03 23:30 41.33490 -82.35956 25045 ft 363 kts 319°
2026-05-03 23:30 41.35471 -82.38031 24693 ft 362 kts 319°
2026-05-03 23:30 41.37444 -82.40103 24349 ft 360 kts 319°
2026-05-03 23:31 41.39408 -82.42169 23996 ft 359 kts 319°
2026-05-03 23:31 41.41362 -82.44227 23650 ft 358 kts 319°
2026-05-03 23:31 41.43310 -82.46280 23267 ft 356 kts 319°
2026-05-03 23:31 41.45250 -82.48324 22921 ft 355 kts 319°
2026-05-03 23:32 41.47188 -82.50365 22566 ft 354 kts 319°
2026-05-03 23:32 41.49110 -82.52395 22223 ft 352 kts 319°
2026-05-03 23:32 41.51028 -82.54421 21876 ft 351 kts 319°
2026-05-03 23:32 41.52933 -82.56435 21540 ft 349 kts 319°
2026-05-03 23:33 41.54836 -82.58450 21207 ft 349 kts 319°
2026-05-03 23:33 41.56733 -82.60459 20862 ft 348 kts 319°
2026-05-03 23:33 41.58626 -82.62464 20522 ft 347 kts 319°
2026-05-03 23:33 41.60514 -82.64466 20194 ft 345 kts 319°
2026-05-03 23:34 41.62391 -82.66453 19861 ft 344 kts 319°
2026-05-03 23:34 41.64259 -82.68434 19529 ft 342 kts 319°
2026-05-03 23:34 41.66119 -82.70413 19205 ft 341 kts 319°
2026-05-03 23:34 41.67974 -82.72387 18872 ft 340 kts 319°
2026-05-03 23:35 41.69819 -82.74348 18546 ft 338 kts 319°
2026-05-03 23:35 41.71656 -82.76301 18217 ft 337 kts 319°
2026-05-03 23:35 41.73461 -82.78224 17950 ft 336 kts 319°
2026-05-03 23:35 41.75224 -82.80257 17642 ft 333 kts 312°
2026-05-03 23:36 41.76788 -82.82531 17337 ft 331 kts 310°
2026-05-03 23:36 41.78344 -82.84804 17005 ft 330 kts 310°
2026-05-03 23:36 41.79890 -82.87064 16684 ft 329 kts 310°
2026-05-03 23:36 41.81437 -82.89329 16358 ft 328 kts 310°
2026-05-03 23:37 41.82975 -82.91581 16040 ft 327 kts 310°
2026-05-03 23:37 41.84507 -82.93824 15721 ft 326 kts 310°
2026-05-03 23:37 41.86035 -82.96067 15404 ft 325 kts 310°
2026-05-03 23:37 41.87555 -82.98299 15092 ft 324 kts 310°
2026-05-03 23:38 41.89072 -83.00527 14645 ft 324 kts 310°
2026-05-03 23:38 41.90591 -83.02774 14123 ft 324 kts 309°
2026-05-03 23:38 41.92099 -83.05015 13613 ft 324 kts 309°
2026-05-03 23:38 41.93599 -83.07246 13135 ft 321 kts 309°
2026-05-03 23:39 41.95090 -83.09467 12652 ft 318 kts 309°
2026-05-03 23:39 41.96563 -83.11660 12139 ft 316 kts 309°
2026-05-03 23:39 41.98031 -83.13839 11664 ft 313 kts 309°
2026-05-03 23:39 41.99480 -83.15987 11336 ft 306 kts 309°
2026-05-03 23:40 42.00883 -83.18071 11205 ft 293 kts 309°
2026-05-03 23:40 42.02216 -83.20057 11078 ft 281 kts 309°
2026-05-03 23:40 42.03500 -83.21974 10858 ft 273 kts 309°
2026-05-03 23:40 42.04765 -83.23851 10597 ft 269 kts 309°
2026-05-03 23:41 42.06027 -83.25692 10373 ft 266 kts 309°
2026-05-03 23:41 42.07428 -83.27329 10130 ft 271 kts 327°
2026-05-03 23:41 42.09237 -83.28092 9821 ft 279 kts 351°
2026-05-03 23:41 42.11178 -83.27715 9483 ft 290 kts 17°
2026-05-03 23:42 42.12975 -83.26406 9155 ft 295 kts 25°
2026-05-03 23:42 42.14723 -83.25021 8816 ft 295 kts 26°
2026-05-03 23:42 42.16496 -83.23623 8485 ft 295 kts 25°
2026-05-03 23:42 42.18240 -83.22251 8341 ft 284 kts 26°
2026-05-03 23:43 42.19906 -83.20934 8242 ft 272 kts 25°
2026-05-03 23:43 42.21509 -83.19674 8141 ft 261 kts 25°
2026-05-03 23:43 42.23041 -83.18454 7954 ft 253 kts 25°
2026-05-03 23:43 42.24552 -83.17243 7637 ft 251 kts 25°
2026-05-03 23:44 42.26058 -83.16039 7294 ft 251 kts 25°
2026-05-03 23:44 42.27562 -83.14846 6948 ft 252 kts 26°
2026-05-03 23:44 42.29087 -83.13664 6587 ft 253 kts 25°
2026-05-03 23:44 42.30628 -83.12521 6247 ft 251 kts 18°
2026-05-03 23:45 42.32277 -83.12158 5896 ft 235 kts 344°
2026-05-03 23:45 42.33707 -83.12952 5457 ft 215 kts 310°
2026-05-03 23:45 42.34504 -83.14538 4916 ft 200 kts 284°
2026-05-03 23:45 42.34912 -83.16324 4387 ft 198 kts 279°
2026-05-03 23:46 42.35248 -83.18117 3881 ft 196 kts 278°
2026-05-03 23:46 42.35530 -83.19908 3357 ft 193 kts 269°
2026-05-03 23:46 42.35415 -83.21665 3005 ft 184 kts 250°
2026-05-03 23:46 42.34879 -83.23209 3022 ft 176 kts 235°
2026-05-03 23:47 42.34060 -83.24389 3010 ft 169 kts 220°
2026-05-03 23:47 42.33071 -83.25199 3003 ft 164 kts 212°
2026-05-03 23:47 42.32115 -83.25905 2903 ft 149 kts 213°
2026-05-03 23:47 42.31259 -83.26537 2750 ft 133 kts 213°
2026-05-03 23:48 42.30468 -83.27123 2591 ft 127 kts 213°
2026-05-03 23:48 42.29713 -83.27683 2463 ft 124 kts 213°
2026-05-03 23:48 42.28966 -83.28236 2279 ft 122 kts 213°
2026-05-03 23:48 42.28216 -83.28791 2117 ft 121 kts 213°
2026-05-03 23:49 42.27480 -83.29335 1954 ft 121 kts 213°
2026-05-03 23:49 42.26746 -83.29878 1787 ft 121 kts 212°
2026-05-03 23:49 42.26013 -83.30420 1618 ft 123 kts 213°
2026-05-03 23:49 42.25270 -83.30969 1437 ft 121 kts 211°
2026-05-03 23:50 42.24526 -83.31514 1290 ft 120 kts 212°
2026-05-03 23:50 42.24035 -83.31878 1168 ft 121 kts 211°
2026-05-03 23:50 42.23063 -83.32597 926 ft 119 kts 209°
2026-05-03 23:50 42.22329 -83.33142 769 ft 120 kts 208°
2026-05-03 23:51 42.21600 -83.33680 646 ft 114 kts 208°
2026-05-03 23:51 42.21028 -83.34101 647 ft 73 kts 208°
2026-05-03 23:51 42.20741 -83.34311 645 ft 30 kts 212°
2026-05-03 23:51 42.20609 -83.34480 648 ft 23 kts 234°
2026-05-03 23:52 42.20538 -83.34631 648 ft 18 kts 238°
2026-05-03 23:52 42.20487 -83.34736 648 ft 13 kts 232°
2026-05-03 23:52 42.20416 -83.34806 649 ft 13 kts 210°
2026-05-03 23:52 42.20330 -83.34869 649 ft 14 kts 208°
2026-05-03 23:53 42.20243 -83.34931 648 ft 14 kts 208°
2026-05-03 23:53 42.20182 -83.35030 649 ft 15 kts 259°
2026-05-03 23:53 42.20175 -83.35178 647 ft 17 kts 269°
2026-05-03 23:53 42.20173 -83.35342 648 ft 18 kts 269°
2026-05-03 23:54 42.20170 -83.35517 647 ft 16 kts 268°
2026-05-03 23:54 42.20168 -83.35678 649 ft 17 kts 269°
2026-05-03 23:54 42.20166 -83.35815 646 ft 13 kts 268°
2026-05-03 23:54 42.20163 -83.35938 646 ft 11 kts 269°
2026-05-03 23:55 42.20162 -83.36042 646 ft 8 kts 269°
2026-05-03 23:55 42.20161 -83.36132 646 ft 11 kts 272°
2026-05-03 23:55 42.20173 -83.36238 648 ft 10 kts 281°
2026-05-03 23:55 42.20187 -83.36338 647 ft 11 kts 280°
2026-05-03 23:56 42.20233 -83.36407 646 ft 10 kts 352°
2026-05-03 23:56 42.20305 -83.36385 646 ft 11 kts 24°
2026-05-03 23:56 42.20375 -83.36334 646 ft 11 kts 29°
2026-05-03 23:56 42.20426 -83.36294 647 ft 7 kts 37°
2026-05-03 23:57 42.20421 -83.36239 648 ft 5 kts 121°
2026-05-03 23:57 42.20408 -83.36210 646 ft 3 kts 121°
2026-05-03 23:57 42.20402 -83.36194 646 ft 1 kts 120°
2026-05-03 23:57 42.20398 -83.36185 646 ft 0 kts 120°